Stations météo

réclame
Mon MeteoGroup
Thorney Island, Grande-Bretagne (3872): Température de l'air & dewpoint: 16.09.2018 14:00:00 - 22.09.2018 14:00:00 (BST)Thorney Island, Grande-Bretagne (3872): Température de l'air -20cm & Température de l'air -100cm: 16.09.2018 14:00:00 - 22.09.2018 14:00:00 (BST)Thorney Island, Grande-Bretagne (3872): Vitesse du vent & gusts: 16.09.2018 14:00:00 - 22.09.2018 14:00:00 (BST)Thorney Island, Grande-Bretagne (3872): Direction du vent: 16.09.2018 14:00:00 - 22.09.2018 14:00:00 (BST)Thorney Island, Grande-Bretagne (3872): reduced air pressure: 16.09.2018 14:00:00 - 22.09.2018 14:00:00 (BST)Thorney Island, Grande-Bretagne (3872): visibility: 16.09.2018 14:00:00 - 22.09.2018 14:00:00 (BST)Thorney Island, Grande-Bretagne (3872): Quantités de précipitations: 16.09.2018 14:00:00 - 22.09.2018 14:00:00 (BST)
Date & Time tt [°C] td [°C] tt -20cm [°C] tt -100cm [°C] ff [km/h] ff [knt] fx [km/h] fx [knt] dd ppp [hPa] vv [km] rr [mm]
22.09.2018 14:00:00 11,4 9,0 - - 8 4 - - SSE 1018,6 9 0,8
22.09.2018 13:00:00 12,4 8,3 - - 9 5 - - SW 1019,7 35 0,2
22.09.2018 12:00:00 12,9 8,5 - - 13 7 - - W 1020,5 18 0,2
22.09.2018 11:00:00 13,2 7,2 - - 13 7 - - W 1020,4 26 0,0
22.09.2018 10:00:00 13,8 8,2 16,4 16,7 22 12 - - W 1020,3 40 0,0
22.09.2018 09:00:00 13,6 8,3 - - 15 8 - - WNW 1020,1 35 0,0
22.09.2018 08:00:00 13,1 8,9 - - 11 6 - - WNW 1019,8 28 0,0
22.09.2018 07:00:00 12,9 8,8 - - 15 8 - - WNW 1019,9 29 0,0
22.09.2018 06:00:00 13,1 9,0 - - 16 9 - - WNW 1019,8 27 0,0
22.09.2018 05:00:00 13,0 9,0 - - 16 9 - - WNW 1019,7 22 0,0
22.09.2018 04:00:00 13,0 8,8 - - 18 10 - - WNW 1019,9 28 0,0
22.09.2018 03:00:00 13,2 8,9 - - 18 10 - - WNW 1019,7 25 0,0
22.09.2018 02:00:00 13,2 8,7 - - 22 12 - - WNW 1019,5 27 0,0
22.09.2018 01:00:00 13,0 8,4 - - 21 11 - - WNW 1019,6 30 0,0
22.09.2018 00:00:00 13,0 8,3 - - 22 12 - - WNW 1019,6 35 0,0
21.09.2018 23:00:00 12,8 8,1 - - 18 10 - - WNW 1019,3 30 0,0
21.09.2018 22:00:00 13,4 7,3 - - 28 15 - - WNW 1018,8 45 0,0
21.09.2018 21:00:00 13,6 7,4 - - 22 12 - - WNW 1018,2 40 0,0
21.09.2018 20:00:00 13,6 7,4 - - 22 12 - - WNW 1017,0 35 0,0
21.09.2018 19:00:00 14,8 7,3 - - 28 15 52 28 WNW 1015,9 40 0,0
21.09.2018 18:00:00 15,9 7,6 - - 29 16 59 32 WNW 1014,7 35 0,0
21.09.2018 17:00:00 16,5 6,5 - - 42 23 61 33 NW 1014,0 40 0,0
21.09.2018 16:00:00 16,3 5,4 - - 41 22 63 34 WNW 1013,3 40 0,0
21.09.2018 15:00:00 17,4 8,2 - - 44 24 59 32 W 1012,8 25 0,0
21.09.2018 14:00:00 17,0 7,8 - - 41 22 63 34 W 1012,2 40 0,0
21.09.2018 13:00:00 16,1 5,6 - - 42 23 61 33 WNW 1011,7 45 0,0
21.09.2018 12:00:00 15,7 7,2 - - 35 19 63 34 WNW 1011,2 50 0,0
21.09.2018 11:00:00 14,4 7,2 - - 42 23 57 31 WNW 1010,7 35 0,0
21.09.2018 10:00:00 13,0 7,1 17,2 16,7 37 20 54 29 WNW 1010,1 45 0,0
21.09.2018 09:00:00 11,9 7,6 - - 35 19 48 26 WNW 1009,1 40 0,0
21.09.2018 08:00:00 10,9 6,1 - - 26 14 - - NW 1008,0 50 0,0
21.09.2018 07:00:00 11,0 7,1 - - 28 15 57 31 NW 1006,3 50 0,0
21.09.2018 06:00:00 12,3 8,0 - - 31 17 54 29 NW 1004,7 50 0,0
21.09.2018 05:00:00 13,1 9,0 - - 35 19 48 26 WNW 1003,1 50 0,0
21.09.2018 04:00:00 13,5 10,2 - - 29 16 61 33 WNW 1002,2 45 0,0
21.09.2018 03:00:00 15,3 11,7 - - 42 23 65 35 WNW 1001,0 40 0,4
21.09.2018 02:00:00 15,4 14,4 - - 50 27 85 46 W 1000,2 4,0 5,0
21.09.2018 01:00:00 18,1 16,4 - - 59 32 83 45 SW 1000,2 10 0,4
21.09.2018 00:00:00 18,0 16,4 - - 57 31 74 40 SW 1000,9 9 0,8
20.09.2018 23:00:00 18,7 16,4 - - 48 26 67 36 SW 1003,1 10 0,0
20.09.2018 22:00:00 18,6 16,0 - - 41 22 57 31 SW 1004,4 13 0,0
20.09.2018 21:00:00 18,4 16,2 - - 37 20 52 28 SW 1005,5 14 0,4
20.09.2018 20:00:00 18,7 16,0 - - 37 20 48 26 SW 1006,3 14 0,0
20.09.2018 19:00:00 18,7 16,0 - - 35 19 48 26 SW 1007,4 14 0,0
20.09.2018 18:00:00 19,1 16,2 - - 37 20 52 28 SW 1008,5 16 0,0
20.09.2018 17:00:00 19,3 16,1 - - 37 20 50 27 SW 1009,6 16 0,0
20.09.2018 16:00:00 19,5 16,5 - - 37 20 52 28 SW 1010,4 14 0,0
20.09.2018 15:00:00 19,1 15,9 - - 42 23 57 31 SW 1011,2 15 0,0
20.09.2018 14:00:00 18,9 16,0 - - 41 22 55 30 SW 1012,0 13 0,0
20.09.2018 13:00:00 19,1 15,7 - - 42 23 57 31 SW 1012,4 12 0,0
20.09.2018 12:00:00 18,5 16,0 - - 39 21 50 27 SW 1013,0 13 0,0
20.09.2018 11:00:00 18,6 15,8 - - 37 20 52 28 WSW 1013,3 14 0,0
20.09.2018 10:00:00 18,1 16,1 17,4 16,7 34 18 46 25 WSW 1013,4 14 0,2
20.09.2018 09:00:00 17,9 15,5 - - 34 18 48 26 WSW 1013,4 12 0,0
20.09.2018 08:00:00 17,7 15,4 - - 35 19 48 26 WSW 1013,4 14 0,0
20.09.2018 07:00:00 17,6 15,2 - - 34 18 50 27 WSW 1013,5 14 0,0
20.09.2018 06:00:00 17,5 15,4 - - 35 19 48 26 WSW 1013,5 12 0,0
20.09.2018 05:00:00 17,6 15,1 - - 35 19 48 26 WSW 1013,7 12 0,0
20.09.2018 04:00:00 17,4 15,1 - - 39 21 59 32 WSW 1013,9 13 0,0
20.09.2018 03:00:00 17,3 15,1 - - 37 20 48 26 SW 1014,0 14 0,0
20.09.2018 02:00:00 17,6 15,6 - - 31 17 - - SW 1014,3 13 0,0
20.09.2018 01:00:00 17,6 15,8 - - 22 12 - - WSW 1014,8 12 0,0
20.09.2018 00:00:00 17,4 15,7 - - 18 10 - - WSW 1015,1 11 0,0
19.09.2018 23:00:00 17,7 15,7 - - 21 11 - - W 1015,6 12 0,0
19.09.2018 22:00:00 17,8 15,7 - - 24 13 - - WSW 1015,5 13 0,0
19.09.2018 21:00:00 17,5 15,7 - - 24 13 - - WSW 1015,6 11 0,0
19.09.2018 20:00:00 17,7 15,6 - - 29 16 - - W 1015,3 12 0,0
19.09.2018 19:00:00 18,1 15,5 - - 31 17 52 28 W 1014,8 13 0,0
19.09.2018 18:00:00 18,9 15,8 - - 35 19 57 31 W 1014,5 13 0,0
19.09.2018 17:00:00 19,3 15,5 - - 50 27 65 35 WSW 1014,2 14 0,0
19.09.2018 16:00:00 19,5 15,9 - - 46 25 65 35 WSW 1014,1 15 0,0
19.09.2018 15:00:00 19,9 16,4 - - 48 26 65 35 WSW 1014,2 16 0,0
19.09.2018 14:00:00 19,3 16,4 - - 46 25 63 34 WSW 1014,1 13 0,0
19.09.2018 13:00:00 18,6 16,7 - - 46 25 65 35 SW 1013,8 12 0,4
19.09.2018 12:00:00 18,2 16,5 - - 44 24 67 36 SW 1013,5 2,9 0,0
19.09.2018 11:00:00 18,7 16,6 - - 42 23 61 33 SW 1013,3 12 0,0
19.09.2018 10:00:00 18,4 16,8 17,5 16,7 41 22 55 30 SW 1013,4 12 0,2
19.09.2018 09:00:00 18,1 16,7 - - 37 20 50 27 SW 1013,3 11 0,0
19.09.2018 08:00:00 18,0 16,3 - - 37 20 48 26 SW 1013,1 12 0,0
19.09.2018 07:00:00 18,0 16,1 - - 34 18 46 25 SW 1012,8 12 0,0
19.09.2018 06:00:00 17,5 16,0 - - 31 17 48 26 SW 1012,7 12 0,0
19.09.2018 05:00:00 17,8 15,6 - - 34 18 52 28 WSW 1012,5 15 0,0
19.09.2018 04:00:00 17,8 15,4 - - 35 19 46 25 SW 1012,8 16 0,0
19.09.2018 03:00:00 18,0 15,5 - - 29 16 - - SW 1013,2 17 0,0
19.09.2018 02:00:00 18,1 14,9 - - 34 18 46 25 SW 1013,3 20 0,0
19.09.2018 01:00:00 18,0 15,0 - - 29 16 - - WSW 1013,6 26 0,0
19.09.2018 00:00:00 18,1 14,8 - - 31 17 - - WSW 1013,4 23 0,0
18.09.2018 23:00:00 18,3 14,7 - - 29 16 - - WSW 1013,5 27 0,0
18.09.2018 22:00:00 18,2 14,6 - - 29 16 - - WSW 1013,5 30 0,0
18.09.2018 21:00:00 18,1 14,9 - - 26 14 - - WSW 1013,4 25 0,0
18.09.2018 20:00:00 17,8 15,1 - - 22 12 - - WSW 1013,5 21 0,0
18.09.2018 19:00:00 18,1 14,8 - - 22 12 - - WSW 1013,3 21 0,0
18.09.2018 18:00:00 18,6 15,3 - - 28 15 - - WSW 1013,2 16 0,0
18.09.2018 17:00:00 18,8 15,5 - - 31 17 46 25 WSW 1013,0 17 0,0
18.09.2018 16:00:00 18,3 15,5 - - 35 19 50 27 WSW 1012,9 8 0,0
18.09.2018 15:00:00 19,2 15,0 - - 35 19 50 27 W 1012,6 16 0,0
18.09.2018 14:00:00 19,3 14,8 - - 35 19 59 32 W 1012,0 19 0,0
18.09.2018 13:00:00 21,1 14,9 - - 37 20 50 27 W 1011,4 23 0,0
18.09.2018 12:00:00 18,4 14,1 - - 35 19 63 34 W 1011,0 18 0,0
18.09.2018 11:00:00 18,0 14,2 - - 37 20 61 33 W 1010,4 16 0,0
18.09.2018 10:00:00 18,3 13,0 17,7 16,7 44 24 61 33 W 1009,4 18 0,0
18.09.2018 09:00:00 17,4 14,4 - - 46 25 63 34 W 1008,2 15 0,0
18.09.2018 08:00:00 17,5 14,8 - - 42 23 63 34 WSW 1007,7 9 0,0
18.09.2018 07:00:00 17,5 14,9 - - 48 26 68 37 WSW 1007,2 12 0,0
18.09.2018 06:00:00 18,3 14,7 - - 44 24 67 36 WSW 1006,8 16 0,0
18.09.2018 05:00:00 18,5 16,2 - - 42 23 63 34 WSW 1006,6 13 0,0
18.09.2018 04:00:00 18,4 16,5 - - 34 18 - - SW 1006,6 15 0,0
18.09.2018 03:00:00 18,4 16,5 - - 28 15 - - SW 1007,1 18 0,0
18.09.2018 02:00:00 18,4 15,8 - - 29 16 - - SW 1007,4 26 0,0
18.09.2018 01:00:00 18,5 14,8 - - 26 14 - - SW 1007,5 30 0,0
18.09.2018 00:00:00 19,0 15,4 - - 24 13 - - SW 1007,7 35 0,0
17.09.2018 23:00:00 18,7 14,6 - - 22 12 - - S 1007,8 40 0,0
17.09.2018 22:00:00 17,9 13,9 - - 18 10 - - SE 1008,5 50 0,0
17.09.2018 21:00:00 17,3 13,9 - - 15 8 - - ESE 1009,1 45 0,0
17.09.2018 20:00:00 17,1 14,1 - - 15 8 - - ESE 1009,7 35 0,0
17.09.2018 19:00:00 18,3 14,1 - - 11 6 - - ESE 1010,3 45 0,0
17.09.2018 18:00:00 19,9 13,0 - - 18 10 - - SE 1011,3 45 0,0
17.09.2018 17:00:00 20,6 12,3 - - 16 9 - - S 1012,2 40 0,0
17.09.2018 16:00:00 20,6 13,3 - - 15 8 - - S 1013,0 45 0,0
17.09.2018 15:00:00 20,1 14,3 - - 16 9 - - S 1014,1 40 0,0
17.09.2018 14:00:00 20,7 15,2 - - 21 11 - - S 1014,7 30 0,0
17.09.2018 13:00:00 20,2 15,9 - - 16 9 - - S 1015,4 35 0,0
17.09.2018 12:00:00 18,8 15,8 - - 16 9 - - S 1016,3 45 0,0
17.09.2018 11:00:00 19,7 16,6 - - 16 9 - - S 1016,7 30 0,0
17.09.2018 10:00:00 19,1 16,6 17,0 16,7 16 9 - - S 1017,0 35 0,0
17.09.2018 09:00:00 18,4 16,3 - - 15 8 - - S 1017,0 35 0,0
17.09.2018 08:00:00 17,4 16,2 - - 16 9 - - SSW 1017,1 21 0,0
17.09.2018 07:00:00 17,4 16,5 - - 15 8 - - SW 1017,3 19 0,0
17.09.2018 06:00:00 17,4 16,2 - - 15 8 - - SW 1017,3 20 0,0
17.09.2018 05:00:00 17,6 16,4 - - 18 10 - - SW 1017,3 26 0,0
17.09.2018 04:00:00 17,5 16,3 - - 21 11 - - SW 1017,8 19 0,0
17.09.2018 03:00:00 17,4 16,2 - - 22 12 - - WSW 1018,0 20 0,0
17.09.2018 02:00:00 17,3 16,1 - - 18 10 - - SW 1017,9 21 0,0
17.09.2018 01:00:00 17,4 15,9 - - 18 10 - - WSW 1018,6 45 -
17.09.2018 00:00:00 17,5 15,9 - - 16 9 - - WSW 1019,0 30 -
16.09.2018 23:00:00 17,2 15,8 - - 13 7 - - W 1019,1 27 -
16.09.2018 22:00:00 16,7 15,5 - - 8 4 - - W 1019,2 25 0,0
16.09.2018 21:00:00 16,6 15,0 - - 16 9 - - WSW 1019,1 28 0,0
16.09.2018 20:00:00 17,1 15,0 - - 21 11 - - WSW 1018,6 35 0,0
16.09.2018 19:00:00 17,8 14,7 - - 16 9 - - WSW 1018,6 30 0,0
16.09.2018 18:00:00 19,0 14,2 - - 22 12 - - W 1018,6 35 0,0
16.09.2018 17:00:00 20,1 14,2 - - 21 11 - - WSW 1018,0 45 0,0
16.09.2018 16:00:00 20,7 12,7 - - 26 14 - - W 1018,6 35 0,0
16.09.2018 15:00:00 19,7 15,0 - - 28 15 - - SW 1018,6 22 0,0
16.09.2018 14:00:00 19,9 14,7 - - 26 14 - - SW 1018,8 50 0,0

tt = Température de l'air
td = dewpoint
tt -20cm = Température de l'air -20cm
tt -100cm = Température de l'air -100cm
ff = Vitesse du vent
fx = gusts
dd = Direction du vent
ppp = reduced air pressure
vv = visibility
rr = Quantités de précipitations

stations d'obs. à proximité